PST,Max TemperatureF,Mean TemperatureF,Min TemperatureF,Max Dew PointF,MeanDew PointF,Min DewpointF,Max Humidity, Mean Humidity, Min Humidity, Max Sea Level PressureIn, Mean Sea Level PressureIn, Min Sea Level PressureIn, Max VisibilityMiles, Mean VisibilityMiles, Min VisibilityMiles, Max Wind SpeedMPH, Mean Wind SpeedMPH, Max Gust SpeedMPH,PrecipitationIn, CloudCover, Events, WindDirDegrees
2012-11-1,66,57,47,55,52,45,93,78,63,30.04,30.01,29.98,10,8,4,10,4,15,0.00,1,,319
2012-11-2,70,58,46,55,50,45,100,80,59,30.09,30.05,30.02,7,3,0,8,2,12,0.00,5,Fog,324
2012-11-3,73,59,44,54,47,43,100,73,46,30.17,30.11,30.06,9,3,0,8,1,9,0.00,0,Fog,334
2012-11-4,76,59,42,52,48,41,100,71,41,30.24,30.19,30.15,9,4,0,8,2,10,0.00,0,Fog,75
2012-11-5,80,62,44,55,49,43,93,68,42,30.21,30.14,30.07,5,3,0,6,1,8,0.01,0,Fog,97
2012-11-6,83,63,43,54,48,43,100,67,34,30.13,30.07,29.98,5,2,0,7,1,8,0.00,0,Fog,32
2012-11-7,82,63,43,53,48,43,100,68,35,30.05,30.00,29.90,6,3,0,6,1,8,0.00,0,Fog,347
2012-11-8,64,55,45,49,43,39,93,67,40,29.99,29.92,29.87,10,8,4,21,8,25,0.00,4,Rain,324
2012-11-9,57,46,35,45,38,34,100,77,54,30.02,29.96,29.93,10,6,0,12,4,16,0.01,2,Fog,233
2012-11-10,59,47,34,40,35,30,100,68,36,30.26,30.13,30.02,10,9,1,14,4,23,0.01,3,,347
2012-11-11,61,45,28,35,30,25,92,60,28,30.41,30.35,30.27,10,8,2,8,3,16,0.00,0,,345
2012-11-12,64,46,27,34,30,25,100,64,27,30.41,30.34,30.27,10,8,3,9,2,,0.00,0,,317
2012-11-13,66,48,29,36,32,27,92,61,29,30.30,30.21,30.13,9,7,4,10,1,10,0.00,0,,71
2012-11-14,67,49,31,39,35,27,89,61,32,30.18,30.10,30.04,6,4,1,6,1,8,0.00,0,,89
2012-11-15,68,50,32,50,40,30,96,67,37,30.08,30.04,30.00,8,3,1,13,3,20,0.01,2,Rain,143
2012-11-16,70,60,50,51,48,45,89,65,40,30.07,30.02,29.98,9,5,2,13,3,17,0.01,6,Rain,115
2012-11-17,71,60,49,58,53,47,93,74,55,30.08,30.00,29.95,10,8,2,13,6,17,0.12,5,Rain,148
2012-11-18,67,56,44,53,48,43,100,79,58,30.19,30.14,30.08,10,8,0,10,5,14,0.01,3,Fog-Rain,175
2012-11-19,68,54,39,48,43,37,100,70,39,30.29,30.22,30.17,10,3,0,6,1,10,0.00,2,Fog,257
2012-11-20,70,54,38,49,42,37,100,71,42,30.23,30.17,30.10,8,3,0,7,1,9,0.00,0,Fog,102
2012-11-21,71,56,40,51,46,39,96,69,41,30.19,30.14,30.09,10,6,2,15,4,17,0.00,1,,331
2012-11-22,65,52,39,49,44,37,100,76,52,30.27,30.22,30.18,10,4,0,12,3,16,0.00,2,Fog,350
2012-11-23,67,52,36,48,41,36,100,76,52,30.31,30.25,30.19,9,3,0,7,1,22,0.00,1,Fog,310
2012-11-24,68,53,37,52,42,36,100,76,52,30.22,30.15,30.05,6,2,0,7,1,10,0.00,1,Fog,335
2012-11-25,66,52,38,50,44,37,100,78,56,30.05,30.00,29.94,7,2,0,8,1,9,0.00,1,Fog,335
2012-11-26,68,51,34,50,41,34,100,74,48,30.10,30.04,30.00,5,2,0,5,1,7,0.01,0,Fog,35
2012-11-27,66,51,36,48,42,36,100,76,52,30.17,30.09,30.04,4,2,0,9,2,10,0.00,0,Fog,84
2012-11-28,63,53,43,53,48,40,93,77,60,30.12,30.05,29.97,10,5,2,17,5,22,0.11,5,Rain,120
2012-11-29,67,60,52,58,55,51,100,84,68,30.18,30.13,30.08,10,7,2,10,5,14,0.01,4,,141
2012-11-30,68,63,57,57,55,53,100,82,63,30.12,30.05,30.00,10,8,5,20,6,24,0.06,7,Rain,148